Back to catalog

RSW-02

AliveMilitaryPO
NORAD 49114·PAYLOAD·🇨🇳 China

Launched Aug 24, 2021 from Jiuquan Satellite Launch Center

Loading…

Next Passes (next 24 hours)

TLE

FreshSource: Space-Track

Epoch: Sep 14, 2026, 14:29 UTC

1 49114U 21076C   26257.60373043 -.00000068  00000-0 -14768-3 0  9998
2 49114  86.4078 125.8859 0018774 166.6977 193.4666 13.42858845247883

Track RSW-02 in real time with AllMySat

Download on the App Store